Waarnemingen

Advertentie
Mijn weer
Ölands Södra Udde, Zweden (2644): temperatuur & dauwpunt: 29.07.2020 19:00:00 - 04.08.2020 19:00:00 (CEST)Ölands Södra Udde, Zweden (2644): windsnelheid & windstoten: 29.07.2020 19:00:00 - 04.08.2020 19:00:00 (CEST)Ölands Södra Udde, Zweden (2644): windrichting: 29.07.2020 19:00:00 - 04.08.2020 19:00:00 (CEST)Ölands Södra Udde, Zweden (2644): luchtdruk: 29.07.2020 19:00:00 - 04.08.2020 19:00:00 (CEST)Ölands Södra Udde, Zweden (2644): zicht: 29.07.2020 19:00:00 - 04.08.2020 19:00:00 (CEST)Ölands Södra Udde, Zweden (2644): neerslag: 29.07.2020 19:00:00 - 04.08.2020 19:00:00 (CEST)
Datum & Tijd tt [°C] td [°C] ff [km/u] ff [kn] fx [km/u] fx [kn] dd ppp [hPa] vv [km] rr [mm]
04.08.2020 19:00:00 - - - - - - - - - -
04.08.2020 18:00:00 19,0 12,0 16 8 23 13 WZW 1011,3 49 0,0
04.08.2020 17:00:00 18,0 12,4 16 9 24 13 WZW 1011,1 47 0,0
04.08.2020 16:00:00 18,0 12,4 19 10 25 14 ZW 1011,2 39 0,0
04.08.2020 15:00:00 18,2 12,9 15 8 24 13 ZW 1011,3 29 0,0
04.08.2020 14:00:00 17,9 13,0 15 8 26 14 ZW 1011,0 32 0,0
04.08.2020 13:00:00 17,0 12,5 18 10 24 13 WZW 1011,1 31 0,0
04.08.2020 12:00:00 16,8 12,3 11 6 14 8 ZZW 1011,1 24 0,0
04.08.2020 11:00:00 17,5 11,1 8 4 19 10 W 1011,2 25 0,0
04.08.2020 10:00:00 16,7 11,6 16 9 23 12 WNW 1011,0 35 0,0
04.08.2020 09:00:00 15,9 11,3 17 9 24 13 NW 1010,9 33 0,0
04.08.2020 08:00:00 14,8 11,4 22 12 28 15 WNW 1011,0 35 0,0
04.08.2020 07:00:00 14,3 11,1 21 11 28 15 NW 1010,7 33 0,0
04.08.2020 06:00:00 14,3 11,3 24 13 30 16 NNW 1010,4 44 0,0
04.08.2020 05:00:00 14,3 10,9 26 14 35 19 NNW 1010,3 50 0,0
04.08.2020 04:00:00 14,8 11,6 29 16 40 22 NNW 1010,3 50 0,0
04.08.2020 03:00:00 15,2 11,6 34 18 39 21 NNW 1009,9 50 0,0
04.08.2020 02:00:00 15,7 11,9 28 15 32 18 NW 1010,0 50 0,0
04.08.2020 01:00:00 16,2 12,0 21 11 28 15 NW 1010,1 50 0,0
04.08.2020 00:00:00 16,5 11,6 20 11 26 14 NW 1009,8 50 0,0
03.08.2020 23:00:00 17,0 12,2 16 9 21 11 NW 1009,3 50 0,0
03.08.2020 22:00:00 17,1 13,8 15 8 21 11 WNW 1009,4 48 0,0
03.08.2020 21:00:00 16,9 13,8 12 6 26 14 W 1009,1 49 0,0
03.08.2020 20:00:00 17,2 13,9 23 13 34 18 W 1009,0 44 0,0
03.08.2020 19:00:00 17,7 14,0 19 10 30 16 WZW 1008,8 33 0,0
03.08.2020 18:00:00 17,2 13,1 18 10 29 16 ZW 1009,0 36 0,0
03.08.2020 17:00:00 17,7 13,2 20 11 29 16 ZW 1009,1 38 0,0
03.08.2020 16:00:00 18,3 12,5 20 11 29 15 WZW 1009,3 28 0,0
03.08.2020 15:00:00 18,4 13,5 12 7 23 13 ZW 1009,6 32 0,0
03.08.2020 14:00:00 18,6 14,5 11 6 21 11 ZW 1009,8 25 0,0
03.08.2020 13:00:00 19,1 15,4 10 6 16 9 ZW 1010,0 35 0,0
03.08.2020 12:00:00 18,4 15,5 9 5 13 7 W 1009,9 32 0,0
03.08.2020 11:00:00 17,5 14,9 7 4 14 8 WZW 1010,0 29 0,0
03.08.2020 10:00:00 17,0 15,0 10 5 18 10 WZW 1010,1 41 0,0
03.08.2020 09:00:00 16,6 14,2 11 6 17 9 W 1009,9 39 0,0
03.08.2020 08:00:00 17,4 14,5 6 4 11 6 W 1009,9 41 0,0
03.08.2020 07:00:00 16,4 14,9 6 3 9 5 W 1009,8 36 0,0
03.08.2020 06:00:00 16,0 14,2 5 3 14 8 W 1010,0 45 0,0
03.08.2020 05:00:00 15,5 13,9 8 4 16 8 W 1010,1 50 0,0
03.08.2020 04:00:00 15,6 14,0 12 6 19 11 WNW 1009,9 50 0,0
03.08.2020 03:00:00 15,6 13,8 16 8 20 11 WNW 1010,1 50 0,0
03.08.2020 02:00:00 15,8 14,0 16 9 24 13 W 1010,2 50 0,0
03.08.2020 01:00:00 16,3 14,3 18 10 23 12 W 1010,2 47 0,0
03.08.2020 00:00:00 16,5 14,9 11 6 18 10 W 1010,0 39 0,0
02.08.2020 23:00:00 16,1 15,1 16 8 19 11 W 1009,9 22 0,0
02.08.2020 22:00:00 15,7 15,1 13 7 27 15 WZW 1009,9 14 0,0
02.08.2020 21:00:00 16,2 15,4 19 11 29 16 WZW 1009,6 14 0,0
02.08.2020 20:00:00 16,1 15,3 18 10 25 14 WZW 1009,5 14 0,0
02.08.2020 19:00:00 16,4 15,4 15 8 22 12 WZW 1009,5 17 0,0
02.08.2020 18:00:00 16,4 15,4 9 5 21 11 ZW 1009,9 10 0,0
02.08.2020 17:00:00 17,2 16,0 17 9 24 13 ZZW 1010,3 10 0,0
02.08.2020 16:00:00 17,2 15,7 14 8 25 13 ZZW 1010,6 15 0,0
02.08.2020 15:00:00 16,9 15,1 16 9 22 12 Z 1011,0 22 0,0
02.08.2020 14:00:00 18,1 15,0 13 7 20 11 Z 1011,1 27 0,0
02.08.2020 13:00:00 16,8 14,8 13 7 23 13 Z 1011,5 29 0,0
02.08.2020 12:00:00 16,5 14,5 19 10 23 12 Z 1011,8 28 0,0
02.08.2020 11:00:00 16,2 14,4 20 11 25 14 ZZO 1011,8 34 0,0
02.08.2020 10:00:00 17,2 14,3 22 12 25 14 ZZO 1011,9 31 0,0
02.08.2020 09:00:00 16,4 13,9 21 11 25 13 ZZO 1012,4 34 0,0
02.08.2020 08:00:00 16,3 14,5 21 11 24 13 ZZO 1012,9 38 0,0
02.08.2020 07:00:00 15,6 14,6 16 9 19 10 ZO 1013,2 28 0,0
02.08.2020 06:00:00 15,3 15,0 14 8 17 9 ZZO 1013,8 18 0,0
02.08.2020 05:00:00 15,0 14,7 13 7 15 8 ZZO 1014,1 13 0,0
02.08.2020 04:00:00 15,2 14,9 11 6 13 7 ZZO 1014,3 17 0,0
02.08.2020 03:00:00 14,6 14,4 8 4 12 6 ZO 1014,7 9 0,0
02.08.2020 02:00:00 14,8 14,6 8 4 11 6 ZZO 1015,2 6 0,0
02.08.2020 01:00:00 14,7 14,5 8 4 12 7 ZZO 1015,5 - 0,0
02.08.2020 00:00:00 14,7 14,5 10 5 10 6 ZO 1015,7 3,4 0,0
01.08.2020 23:00:00 14,9 14,6 6 4 8 4 ZO 1016,1 4,1 0,0
01.08.2020 22:00:00 15,3 14,7 5 3 10 5 ZW 1016,7 18 0,0
01.08.2020 21:00:00 15,4 14,8 6 3 11 6 ZW 1016,9 12 0,0
01.08.2020 20:00:00 16,7 14,7 6 3 10 5 ZW 1017,2 37 0,0
01.08.2020 19:00:00 17,4 14,7 7 4 10 5 ZW 1017,3 39 0,0
01.08.2020 18:00:00 17,5 15,1 7 4 13 7 ZZO 1017,5 38 0,0
01.08.2020 17:00:00 18,8 15,7 9 5 15 8 ZZO 1018,0 33 0,0
01.08.2020 16:00:00 18,7 14,8 10 5 13 7 ZZO 1018,0 43 0,0
01.08.2020 15:00:00 18,8 16,0 12 6 14 8 ZO 1018,2 36 0,0
01.08.2020 14:00:00 18,5 15,4 9 5 12 6 ZZO 1018,6 29 0,0
01.08.2020 13:00:00 18,0 15,6 11 6 12 7 O 1019,0 35 0,0
01.08.2020 12:00:00 17,2 14,5 5 3 8 5 O 1019,0 28 0,0
01.08.2020 11:00:00 17,3 14,7 6 4 11 6 O 1018,9 34 0,0
01.08.2020 10:00:00 17,1 14,2 10 5 18 10 ONO 1018,8 40 0,0
01.08.2020 09:00:00 17,3 14,2 15 8 20 11 ONO 1018,3 47 0,0
01.08.2020 08:00:00 17,3 13,8 14 8 18 10 NO 1018,2 43 0,0
01.08.2020 07:00:00 16,2 14,7 10 5 16 8 N 1018,3 44 0,0
01.08.2020 06:00:00 14,9 13,8 12 7 14 8 NNW 1018,3 43 0,0
01.08.2020 05:00:00 14,7 14,0 8 5 12 7 WNW 1017,9 32 0,0
01.08.2020 04:00:00 14,7 14,2 8 4 13 7 WNW 1017,8 27 0,0
01.08.2020 03:00:00 14,6 14,1 10 5 11 6 WNW 1018,2 13 0,0
01.08.2020 02:00:00 14,9 13,8 5 3 13 7 W 1018,4 32 0,0
01.08.2020 01:00:00 14,6 13,1 8 4 13 7 WZW 1018,5 50 0,0
01.08.2020 00:00:00 14,5 13,0 7 4 14 8 WZW 1018,6 50 0,0
31.07.2020 23:00:00 15,5 12,4 11 6 16 9 ZW 1018,6 50 0,0
31.07.2020 22:00:00 15,2 12,7 11 6 16 8 ZW 1018,5 50 0,0
31.07.2020 21:00:00 15,2 12,7 9 5 15 8 WZW 1018,3 50 0,0
31.07.2020 20:00:00 16,1 12,8 10 5 14 7 WZW 1018,0 48 0,0
31.07.2020 19:00:00 16,5 13,0 11 6 16 9 ZW 1018,1 46 0,0
31.07.2020 18:00:00 17,4 13,3 7 4 13 7 ZZW 1017,8 43 0,0
31.07.2020 17:00:00 17,1 13,6 6 4 14 8 OZO 1017,4 35 0,0
31.07.2020 16:00:00 17,5 13,8 11 6 21 11 O 1017,0 36 0,0
31.07.2020 15:00:00 17,9 13,6 14 8 26 14 O 1016,9 34 0,0
31.07.2020 14:00:00 17,6 12,7 16 8 29 16 ONO 1016,2 42 0,0
31.07.2020 13:00:00 19,2 13,8 13 7 31 17 NW 1015,6 41 0,0
31.07.2020 12:00:00 18,5 13,1 28 15 37 20 NNW 1015,0 38 0,0
31.07.2020 11:00:00 18,6 14,0 27 14 35 19 N 1014,5 35 0,0
31.07.2020 10:00:00 16,9 13,4 25 13 38 21 NW 1013,8 39 0,0
31.07.2020 09:00:00 16,8 13,3 27 15 37 20 NW 1013,0 38 0,0
31.07.2020 08:00:00 15,5 12,6 32 17 43 23 WNW 1012,8 34 0,0
31.07.2020 07:00:00 15,1 12,6 36 20 44 24 WNW 1012,2 35 0,0
31.07.2020 06:00:00 14,5 12,2 36 19 44 24 WNW 1012,1 38 0,0
31.07.2020 05:00:00 14,2 12,0 27 15 36 19 W 1011,9 48 0,0
31.07.2020 04:00:00 14,0 11,9 26 14 35 19 W 1012,1 50 0,0
31.07.2020 03:00:00 13,5 11,6 24 13 39 21 W 1012,0 49 0,0
31.07.2020 02:00:00 13,7 11,4 30 16 45 24 W 1012,2 43 0,0
31.07.2020 01:00:00 13,9 11,4 32 18 44 24 W 1012,8 36 0,0
31.07.2020 00:00:00 14,2 11,7 22 12 45 24 W 1013,0 38 0,0
30.07.2020 23:00:00 14,4 11,7 27 15 49 26 W 1013,2 38 0,0
30.07.2020 22:00:00 14,6 11,4 24 13 47 25 W 1013,5 46 0,0
30.07.2020 21:00:00 14,5 11,6 31 17 48 26 W 1013,6 41 0,0
30.07.2020 20:00:00 14,7 12,4 22 12 42 23 W 1013,5 48 0,0
30.07.2020 19:00:00 14,5 12,7 35 19 51 28 WZW 1013,4 43 0,0
30.07.2020 18:00:00 14,4 12,3 44 24 54 29 WZW 1013,4 34 0,0
30.07.2020 17:00:00 14,6 12,1 42 23 53 29 WZW 1013,4 36 0,0
30.07.2020 16:00:00 14,9 12,0 39 21 57 31 WZW 1013,4 32 0,0
30.07.2020 15:00:00 14,7 11,7 36 19 53 28 WZW 1013,2 27 0,0
30.07.2020 14:00:00 16,0 11,8 43 23 54 29 WZW 1012,7 28 0,0
30.07.2020 13:00:00 16,3 12,1 39 21 49 26 WZW 1012,6 28 0,0
30.07.2020 12:00:00 14,9 12,4 29 16 44 24 WZW 1012,5 34 0,0
30.07.2020 11:00:00 15,2 12,4 26 14 49 26 WZW 1012,3 35 0,0
30.07.2020 10:00:00 14,3 11,6 32 17 49 27 WZW 1012,2 35 0,0
30.07.2020 09:00:00 14,2 11,4 34 19 52 28 WZW 1012,0 36 0,0
30.07.2020 08:00:00 14,0 11,0 37 20 48 26 WZW 1011,7 36 0,0
30.07.2020 07:00:00 13,8 10,8 39 21 50 27 WZW 1011,4 35 0,0
30.07.2020 06:00:00 13,7 10,9 38 21 51 28 WZW 1011,5 34 0,0
30.07.2020 05:00:00 13,6 11,1 35 19 50 27 WZW 1011,2 38 0,0
30.07.2020 04:00:00 13,8 11,1 39 21 48 26 W 1011,1 33 0,0
30.07.2020 03:00:00 13,8 11,1 34 19 48 26 WZW 1011,2 28 0,0
30.07.2020 02:00:00 14,1 11,6 32 17 51 28 WZW 1011,1 31 -
30.07.2020 01:00:00 14,6 11,4 40 22 52 28 WZW 1010,9 39 0,0
30.07.2020 00:00:00 15,1 11,7 42 23 51 28 WZW 1010,9 38 0,0
29.07.2020 23:00:00 15,0 12,1 34 19 52 28 WZW 1011,0 35 0,0
29.07.2020 22:00:00 15,2 12,1 38 20 49 26 WZW 1011,0 38 0,0
29.07.2020 21:00:00 15,7 12,3 30 16 44 24 WZW 1010,9 34 0,0
29.07.2020 20:00:00 15,9 12,6 32 17 55 30 WZW 1010,7 31 0,0
29.07.2020 19:00:00 16,2 12,9 40 21 55 30 WZW 1010,7 31 0,0

tt = temperatuur
td = dauwpunt
ff = windsnelheid
fx = windstoten
dd = windrichting
ppp = luchtdruk
vv = zicht
rr = neerslag

Weerstations in de omgeving